{"data":{"norad_id":64601,"epoch":"2026-09-20T22:51:50.211936Z","epoch_age_seconds":92438,"freshness":"FRESH","line1":"1 64601U 25137H   26263.95266449  .00015094  00000+0  45652-3 0  9992","line2":"2 64601  53.1588 147.3335 0001135  88.7074 271.4058 15.34431695 70644","mean_motion":15.34431695,"eccentricity":0.0001135,"inclination_deg":53.1588,"raan_deg":147.3335,"arg_perigee_deg":88.7074,"mean_anomaly_deg":271.4058,"bstar":0.00045652,"rev_number":7064,"period_min":93.845819575566,"perigee_km":461.83261293398,"apogee_km":463.38546228452,"semimajor_km":6840.7460376092,"source":"CELESTRAK","updated_at":"2026-09-21T09:00:35.365250Z"}}